| time (UTC) | temp F | wind direction | speed MPH | gust MPH | rain 1hr in | rain 24hr in | rain mn in | humidity % | barometer mb |
| 20260505054549 | 74 | 132 | 6.0 | 11.0 | 0.00 | 0.00 | 0.00 | 74 | 1005.0 |
| 20260505054018 | 74 | 138 | 5.0 | 11.0 | 0.00 | 0.00 | 0.00 | 74 | 1005.0 |
| 20260505053519 | 74 | 143 | 4.0 | 12.0 | 0.00 | 0.00 | 0.00 | 74 | 1005.0 |
| 20260505053041 | 74 | 120 | 7.0 | 13.0 | 0.00 | 0.00 | 0.00 | 74 | 1005.0 |
| 20260505052519 | 74 | 128 | 7.0 | 13.0 | 0.00 | 0.00 | 0.00 | 74 | 1005.0 |
| 20260505052024 | 74 | 130 | 6.0 | 13.0 | 0.00 | 0.00 | 0.00 | 74 | 1004.9 |
| 20260505051544 | 74 | 135 | 5.0 | 10.0 | 0.00 | 0.00 | 0.00 | 74 | 1005.1 |
| 20260505051019 | 74 | 139 | 4.0 | 10.0 | 0.00 | 0.00 | 0.00 | 75 | 1004.9 |
| 20260505050525 | 74 | 140 | 4.0 | 10.0 | 0.00 | 0.00 | 0.00 | 74 | 1005.0 |
| 20260505041545 | 73 | 139 | 3.0 | 10.0 | 0.00 | 0.00 | 0.00 | 76 | 1005.2 |
| 20260505041017 | 73 | 90 | 3.0 | 10.0 | 0.00 | 0.00 | 0.00 | 76 | 1005.2 |
| 20260505040520 | 73 | 144 | 3.0 | 10.0 | 0.00 | 0.00 | 0.00 | 76 | 1005.2 |
| 20260505040041 | 73 | 117 | 3.0 | 10.0 | 0.00 | 0.00 | 0.00 | 76 | 1005.2 |
| 20260505035524 | 73 | 117 | 3.0 | 8.0 | 0.00 | 0.00 | 0.00 | 76 | 1005.2 |
| 20260505035017 | 73 | 68 | 2.0 | 9.0 | 0.00 | 0.00 | 0.00 | 76 | 1005.3 |
| 20260505034538 | 73 | 115 | 3.0 | 9.0 | 0.00 | 0.00 | 0.00 | 76 | 1005.2 |
| 20260505034018 | 73 | 53 | 4.0 | 9.0 | 0.00 | 0.00 | 0.00 | 76 | 1005.2 |
| 20260505033518 | 73 | 149 | 3.0 | 9.0 | 0.00 | 0.00 | 0.00 | 75 | 1005.2 |
| 20260505033036 | 73 | 113 | 3.0 | 9.0 | 0.00 | 0.00 | 0.00 | 75 | 1005.2 |
| 20260505032526 | 73 | 137 | 3.0 | 12.0 | 0.00 | 0.00 | 0.00 | 75 | 1005.2 |
| 20260505032019 | 73 | 111 | 3.0 | 15.0 | 0.00 | 0.00 | 0.00 | 75 | 1005.2 |
| 20260505031540 | 73 | 155 | 2.0 | 15.0 | 0.00 | 0.00 | 0.00 | 75 | 1005.1 |
| 20260505031019 | 74 | 100 | 6.0 | 15.0 | 0.00 | 0.00 | 0.00 | 75 | 1005.0 |
| 20260505030522 | 73 | 138 | 5.0 | 13.0 | 0.00 | 0.00 | 0.00 | 75 | 1005.2 |
| 20260505030051 | 74 | 79 | 3.0 | 11.0 | 0.00 | 0.00 | 0.00 | 75 | 1005.3 |
| 20260505025523 | 73 | 115 | 3.0 | 11.0 | 0.00 | 0.00 | 0.00 | 75 | 1005.2 |
| 20260505025020 | 74 | 86 | 4.0 | 11.0 | 0.00 | 0.00 | 0.00 | 75 | 1005.1 |
| 20260505024541 | 73 | 90 | 4.0 | 11.0 | 0.00 | 0.00 | 0.00 | 75 | 1005.2 |
| 20260505024018 | 73 | 77 | 3.0 | 10.0 | 0.00 | 0.00 | 0.00 | 75 | 1005.2 |
| 20260505023519 | 73 | 116 | 2.0 | 10.0 | 0.00 | 0.00 | 0.00 | 75 | 1005.2 |
| 20260505023040 | 73 | 84 | 3.0 | 12.0 | 0.00 | 0.00 | 0.00 | 75 | 1005.2 |
| 20260505022519 | 73 | 128 | 3.0 | 12.0 | 0.00 | 0.00 | 0.00 | 75 | 1005.2 |
| 20260505022018 | 73 | 71 | 2.0 | 12.0 | 0.00 | 0.00 | 0.00 | 75 | 1005.2 |
| 20260505021549 | 73 | 106 | 2.0 | 9.0 | 0.00 | 0.00 | 0.00 | 75 | 1005.2 |
| 20260505021018 | 73 | 134 | 2.0 | 9.0 | 0.00 | 0.00 | 0.00 | 75 | 1005.2 |
| 20260505020518 | 74 | 80 | 2.0 | 9.0 | 0.00 | 0.00 | 0.00 | 75 | 1005.1 |
| 20260505020049 | 74 | 75 | 2.0 | 11.0 | 0.00 | 0.00 | 0.00 | 74 | 1005.2 |
| 20260505015520 | 74 | 165 | 2.0 | 11.0 | 0.00 | 0.00 | 0.00 | 74 | 1005.2 |
| 20260505015020 | 74 | 89 | 3.0 | 11.0 | 0.00 | 0.00 | 0.00 | 74 | 1005.1 |
| 20260505014536 | 74 | 149 | 2.0 | 9.0 | 0.00 | 0.00 | 0.00 | 74 | 1005.2 |
| 20260505014019 | 74 | 129 | 2.0 | 9.0 | 0.00 | 0.00 | 0.00 | 73 | 1005.1 |
| 20260505013519 | 74 | 86 | 3.0 | 9.0 | 0.00 | 0.00 | 0.00 | 73 | 1005.1 |
| 20260505013040 | 74 | 111 | 3.0 | 9.0 | 0.00 | 0.00 | 0.00 | 72 | 1005.1 |
| 20260505012519 | 75 | 92 | 1.0 | 10.0 | 0.00 | 0.00 | 0.00 | 72 | 1005.2 |
| 20260505012022 | 75 | 147 | 3.0 | 10.0 | 0.00 | 0.00 | 0.00 | 72 | 1005.2 |
| 20260505011541 | 75 | 150 | 2.0 | 9.0 | 0.00 | 0.00 | 0.00 | 72 | 1005.2 |
| 20260505011017 | 75 | 101 | 1.0 | 8.0 | 0.00 | 0.00 | 0.00 | 71 | 1005.1 |
| 20260505010519 | 76 | 137 | 2.0 | 9.0 | 0.00 | 0.00 | 0.00 | 71 | 1005.2 |
| 20260505005519 | 76 | 126 | 2.0 | 10.0 | 0.00 | 0.00 | 0.00 | 70 | 1005.1 |
| 20260505005021 | 76 | 114 | 3.0 | 10.0 | 0.00 | 0.00 | 0.00 | 70 | 1005.2 |
| 20260505004537 | 76 | 150 | 3.0 | 10.0 | 0.00 | 0.00 | 0.00 | 70 | 1005.3 |
| 20260505004019 | 76 | 130 | 3.0 | 12.0 | 0.00 | 0.00 | 0.00 | 69 | 1005.3 |
| 20260505003519 | 77 | 145 | 4.0 | 12.0 | 0.00 | 0.00 | 0.00 | 69 | 1005.2 |
| 20260505003048 | 77 | 155 | 4.0 | 12.0 | 0.00 | 0.00 | 0.00 | 68 | 1005.2 |
| 20260505002520 | 77 | 93 | 4.0 | 12.0 | 0.00 | 0.00 | 0.00 | 68 | 1005.2 |
| 20260505002020 | 77 | 107 | 3.0 | 13.0 | 0.00 | 0.00 | 0.00 | 68 | 1005.1 |
| 20260505001542 | 77 | 121 | 5.0 | 21.0 | 0.00 | 0.00 | 0.00 | 66 | 1005.2 |
| 20260505001023 | 78 | 150 | 6.0 | 21.0 | 0.00 | 0.00 | 0.00 | 66 | 1005.1 |
| 20260505000520 | 78 | 111 | 9.0 | 16.0 | 0.00 | 0.00 | 0.00 | 65 | 1005.2 |
| 20260505000048 | 78 | 136 | 7.0 | 18.0 | 0.00 | 0.00 | 0.00 | 66 | 1005.3 |
| 20260504235517 | 78 | 138 | 7.0 | 18.0 | 0.00 | 0.00 | 0.00 | 66 | 1005.4 |
| 20260504235021 | 79 | 111 | 6.0 | 16.0 | 0.00 | 0.00 | 0.00 | 66 | 1005.4 |
| 20260504234539 | 79 | 146 | 8.0 | 16.0 | 0.00 | 0.00 | 0.00 | 65 | 1005.4 |
| 20260504234016 | 79 | 133 | 6.0 | 13.0 | 0.00 | 0.00 | 0.00 | 65 | 1005.3 |
| 20260504233516 | 79 | 128 | 6.0 | 13.0 | 0.00 | 0.00 | 0.00 | 65 | 1005.4 |
| 20260504233045 | 79 | 139 | 8.0 | 20.0 | 0.00 | 0.00 | 0.00 | 64 | 1005.5 |
| 20260504232518 | 79 | 142 | 8.0 | 20.0 | 0.00 | 0.00 | 0.00 | 64 | 1005.6 |
| 20260504232019 | 79 | 136 | 10.0 | 20.0 | 0.00 | 0.00 | 0.00 | 64 | 1005.6 |
| 20260504231537 | 79 | 124 | 6.0 | 13.0 | 0.00 | 0.00 | 0.00 | 65 | 1005.6 |
| 20260504231019 | 79 | 122 | 7.0 | 13.0 | 0.00 | 0.00 | 0.00 | 64 | 1005.5 |
| 20260504230523 | 79 | 121 | 4.0 | 11.0 | 0.00 | 0.00 | 0.00 | 65 | 1005.5 |
| 20260504230043 | 80 | 128 | 5.0 | 12.0 | 0.00 | 0.00 | 0.00 | 64 | 1005.5 |
| 20260504225520 | 80 | 139 | 6.0 | 15.0 | 0.00 | 0.00 | 0.00 | 63 | 1005.7 |
| 20260504225017 | 80 | 136 | 6.0 | 16.0 | 0.00 | 0.00 | 0.00 | 63 | 1005.8 |
| 20260504224536 | 81 | 140 | 9.0 | 16.0 | 0.00 | 0.00 | 0.00 | 62 | 1005.9 |
| 20260504224017 | 81 | 148 | 9.0 | 17.0 | 0.00 | 0.00 | 0.00 | 62 | 1005.8 |
| 20260504223517 | 81 | 119 | 9.0 | 17.0 | 0.00 | 0.00 | 0.00 | 62 | 1005.6 |
| 20260504223034 | 81 | 144 | 9.0 | 16.0 | 0.00 | 0.00 | 0.00 | 62 | 1005.9 |
| 20260504222517 | 81 | 141 | 9.0 | 16.0 | 0.00 | 0.00 | 0.00 | 61 | 1005.8 |
| 20260504222022 | 81 | 143 | 9.0 | 16.0 | 0.00 | 0.00 | 0.00 | 61 | 1005.8 |
| 20260504221538 | 81 | 146 | 6.0 | 15.0 | 0.00 | 0.00 | 0.00 | 62 | 1005.8 |
| 20260504221022 | 81 | 149 | 6.0 | 16.0 | 0.00 | 0.00 | 0.00 | 62 | 1005.8 |
| 20260504220520 | 81 | 148 | 8.0 | 20.0 | 0.00 | 0.00 | 0.00 | 61 | 1005.9 |
| 20260504220038 | 81 | 114 | 9.0 | 20.0 | 0.00 | 0.00 | 0.00 | 61 | 1005.9 |
| 20260504215520 | 81 | 111 | 7.0 | 21.0 | 0.00 | 0.00 | 0.00 | 61 | 1006.1 |
| 20260504215020 | 81 | 146 | 9.0 | 21.0 | 0.00 | 0.00 | 0.00 | 62 | 1006.1 |
| 20260504214542 | 81 | 116 | 8.0 | 13.0 | 0.00 | 0.00 | 0.00 | 62 | 1006.1 |
| 20260504214019 | 81 | 88 | 7.0 | 13.0 | 0.00 | 0.00 | 0.00 | 62 | 1006.2 |
| 20260504213518 | 81 | 151 | 8.0 | 24.0 | 0.00 | 0.00 | 0.00 | 61 | 1006.3 |
| 20260504213041 | 81 | 122 | 9.0 | 24.0 | 0.00 | 0.00 | 0.00 | 62 | 1006.4 |
| 20260504212520 | 81 | 144 | 6.0 | 20.0 | 0.00 | 0.00 | 0.00 | 63 | 1006.5 |
| 20260504212019 | 81 | 127 | 10.0 | 20.0 | 0.00 | 0.00 | 0.00 | 60 | 1006.8 |
| 20260504211542 | 81 | 146 | 9.0 | 20.0 | 0.00 | 0.00 | 0.00 | 61 | 1006.9 |
| 20260504211019 | 81 | 175 | 6.0 | 18.0 | 0.00 | 0.00 | 0.00 | 62 | 1006.9 |
| 20260504210522 | 81 | 151 | 9.0 | 18.0 | 0.00 | 0.00 | 0.00 | 62 | 1006.9 |
| 20260504210050 | 81 | 115 | 7.0 | 16.0 | 0.00 | 0.00 | 0.00 | 61 | 1007.0 |
| 20260504205518 | 80 | 143 | 6.0 | 17.0 | 0.00 | 0.00 | 0.00 | 62 | 1007.1 |
| 20260504205019 | 80 | 159 | 10.0 | 17.0 | 0.00 | 0.00 | 0.00 | 62 | 1007.1 |
| 20260504204543 | 80 | 113 | 7.0 | 13.0 | 0.00 | 0.00 | 0.00 | 62 | 1007.3 |
| 20260504204019 | 80 | 153 | 6.0 | 13.0 | 0.00 | 0.00 | 0.00 | 62 | 1007.5 |
| 20260504203520 | 80 | 103 | 6.0 | 14.0 | 0.00 | 0.00 | 0.00 | 63 | 1007.6 |
| 20260504203039 | 80 | 142 | 7.0 | 14.0 | 0.00 | 0.00 | 0.00 | 63 | 1007.6 |
| 20260504202519 | 80 | 79 | 6.0 | 18.0 | 0.00 | 0.00 | 0.00 | 63 | 1007.7 |
| 20260504202018 | 80 | 132 | 9.0 | 19.0 | 0.00 | 0.00 | 0.00 | 61 | 1007.7 |
| 20260504201536 | 80 | 137 | 10.0 | 19.0 | 0.00 | 0.00 | 0.00 | 62 | 1007.8 |
| 20260504201018 | 80 | 120 | 9.0 | 15.0 | 0.00 | 0.00 | 0.00 | 61 | 1008.0 |
| 20260504200518 | 80 | 123 | 6.0 | 18.0 | 0.00 | 0.00 | 0.00 | 63 | 1007.9 |
| 20260504200049 | 80 | 161 | 7.0 | 18.0 | 0.00 | 0.00 | 0.00 | 62 | 1008.2 |
| 20260504195521 | 80 | 111 | 10.0 | 18.0 | 0.00 | 0.00 | 0.00 | 61 | 1008.5 |
| 20260504195019 | 80 | 115 | 7.0 | 18.0 | 0.00 | 0.00 | 0.00 | 63 | 1008.6 |
| 20260504194538 | 80 | 115 | 6.0 | 14.0 | 0.00 | 0.00 | 0.00 | 62 | 1008.7 |
| 20260504194018 | 79 | 150 | 6.0 | 14.0 | 0.00 | 0.00 | 0.00 | 64 | 1008.7 |
| 20260504193521 | 79 | 115 | 6.0 | 14.0 | 0.00 | 0.00 | 0.00 | 62 | 1008.8 |
| 20260504193039 | 79 | 114 | 6.0 | 16.0 | 0.00 | 0.00 | 0.00 | 62 | 1008.7 |
| 20260504192518 | 79 | 165 | 7.0 | 17.0 | 0.00 | 0.00 | 0.00 | 63 | 1009.0 |
| 20260504192019 | 79 | 138 | 8.0 | 17.0 | 0.00 | 0.00 | 0.00 | 62 | 1008.9 |
| 20260504191537 | 79 | 136 | 8.0 | 17.0 | 0.00 | 0.00 | 0.00 | 62 | 1009.0 |
| 20260504191023 | 79 | 118 | 8.0 | 16.0 | 0.00 | 0.00 | 0.00 | 63 | 1009.1 |
| 20260504190522 | 78 | 150 | 9.0 | 16.0 | 0.00 | 0.00 | 0.00 | 64 | 1009.2 |
| 20260504190035 | 79 | 95 | 6.0 | 14.0 | 0.00 | 0.00 | 0.00 | 63 | 1009.3 |
| 20260504185518 | 79 | 136 | 7.0 | 17.0 | 0.00 | 0.00 | 0.00 | 64 | 1009.3 |
| 20260504185022 | 78 | 141 | 6.0 | 17.0 | 0.00 | 0.00 | 0.00 | 64 | 1009.5 |
| 20260504184539 | 78 | 126 | 10.0 | 17.0 | 0.00 | 0.00 | 0.00 | 64 | 1009.5 |
| 20260504184018 | 78 | 157 | 5.0 | 15.0 | 0.00 | 0.00 | 0.00 | 66 | 1009.6 |
| 20260504183520 | 77 | 150 | 7.0 | 18.0 | 0.00 | 0.00 | 0.00 | 64 | 1009.6 |
| 20260504183036 | 76 | 152 | 8.0 | 18.0 | 0.00 | 0.00 | 0.00 | 65 | 1009.6 |
| 20260504182519 | 76 | 146 | 10.0 | 16.0 | 0.00 | 0.00 | 0.00 | 65 | 1009.6 |
| 20260504182021 | 77 | 138 | 7.0 | 19.0 | 0.00 | 0.00 | 0.00 | 64 | 1009.8 |
| 20260504181538 | 76 | 140 | 8.0 | 19.0 | 0.00 | 0.00 | 0.00 | 65 | 1009.8 |
| 20260504181017 | 76 | 144 | 7.0 | 19.0 | 0.00 | 0.00 | 0.00 | 64 | 1009.9 |
| 20260504180518 | 76 | 146 | 7.0 | 19.0 | 0.00 | 0.00 | 0.00 | 65 | 1010.0 |
| 20260504180037 | 76 | 206 | 9.0 | 20.0 | 0.00 | 0.00 | 0.00 | 66 | 1010.1 |
| 20260504175518 | 76 | 136 | 10.0 | 20.0 | 0.00 | 0.00 | 0.00 | 65 | 1010.1 |
| 20260504175016 | 75 | 143 | 12.0 | 20.0 | 0.00 | 0.00 | 0.00 | 64 | 1010.3 |
| 20260504174535 | 75 | 153 | 9.0 | 20.0 | 0.00 | 0.00 | 0.00 | 66 | 1010.3 |
| 20260504174021 | 75 | 117 | 10.0 | 20.0 | 0.00 | 0.00 | 0.00 | 64 | 1010.1 |
| 20260504173517 | 75 | 150 | 8.0 | 20.0 | 0.00 | 0.00 | 0.00 | 67 | 1010.4 |
| 20260504173034 | 74 | 144 | 8.0 | 20.0 | 0.00 | 0.00 | 0.00 | 66 | 1010.4 |
| 20260504172519 | 75 | 117 | 11.0 | 18.0 | 0.00 | 0.00 | 0.00 | 64 | 1010.5 |
| 20260504172017 | 74 | 129 | 6.0 | 15.0 | 0.00 | 0.00 | 0.00 | 68 | 1010.6 |
| 20260504171535 | 74 | 155 | 6.0 | 16.0 | 0.00 | 0.00 | 0.00 | 69 | 1010.8 |
| 20260504171017 | 74 | 140 | 9.0 | 16.0 | 0.00 | 0.00 | 0.00 | 68 | 1010.8 |
| 20260504170517 | 73 | 141 | 9.0 | 19.0 | 0.00 | 0.00 | 0.00 | 66 | 1010.7 |
| 20260504151021 | 69 | 141 | 9.0 | 23.0 | 0.00 | 0.00 | 0.00 | 69 | 1012.0 |
| 20260504150516 | 69 | 138 | 11.0 | 23.0 | 0.00 | 0.00 | 0.00 | 69 | 1012.1 |
| 20260504141022 | 66 | 128 | 11.0 | 19.0 | 0.00 | 0.00 | 0.00 | 73 | 1012.3 |
| 20260504140519 | 66 | 144 | 8.0 | 18.0 | 0.00 | 0.00 | 0.00 | 74 | 1012.4 |
| 20260504130516 | 63 | 146 | 4.0 | 10.0 | 0.00 | 0.00 | 0.00 | 77 | 1012.6 |
| 20260504110520 | 60 | 142 | 4.0 | 9.0 | 0.00 | 0.00 | 0.00 | 77 | 1012.3 |
| 20260504100520 | 61 | 142 | 5.0 | 10.0 | 0.00 | 0.00 | 0.00 | 73 | 1012.5 |
| 20260504081543 | 59 | 0 | 0.0 | 0.0 | 0.00 | 0.00 | 0.00 | 73 | 1013.0 |
| 20260504081018 | 59 | 0 | 0.0 | 0.0 | 0.00 | 0.00 | 0.00 | 73 | 1013.1 |
| 20260504080524 | 59 | 0 | 0.0 | 0.0 | 0.00 | 0.00 | 0.00 | 73 | 1013.3 |